Hourly Data Report for September 30, 2002

SHERBROOKE A
QUEBEC

45°26'00.000" N
71°41'00.000" W
241.40 m
7028124
71610
YSC

Download Data

Hourly Data (September 2002)
Hourly Data Report for September 30, 2002
TIME
LST
Temp Definition
°C
Dew Point Definition
°C
Rel Hum Definition
%
Precip. Amount Definition
mm

Wind Dir Definition
10's deg

Wind Spd Definition
km/h
Visibility Definition
km
Stn Press Definition
kPa
Hmdx Definition


Wind Chill Definition


Weather Definition


00:00 7.1 5.7 91   4 6 15.0 99.49      
01:00 6.5 5.0 90   9 6 15.0 99.46      
02:00 4.1 3.0 93   7 4 15.0 99.42      
03:00 3.8 3.1 95   9 6 15.0 99.38      
04:00 5.4 4.6 95   9 6 15.0 99.40      
05:00 4.2 3.5 95   7 4 15.0 99.40      
06:00 3.0 2.4 96     0 15.0 99.40      
07:00 6.5 5.9 96   3 6 24.1 99.38     Mainly Clear
08:00 8.7 6.8 88   10 4 24.1 99.34     Mostly Cloudy
09:00 10.5 7.8 83   28 4 24.1 99.34     Mostly Cloudy
10:00 12.2 9.0 81     0 24.1 99.26     Cloudy
11:00 14.1 9.8 75     0 24.1 99.18     Cloudy
12:00 12.6 11.8 95     0 9.7 99.18     Rain, Fog
13:00 15.9 14.3 90   9 4 19.3 99.07     Mostly Cloudy
14:00 17.0 14.1 83     0 24.1 99.04     Cloudy
15:00 17.7 14.8 83   24 4 19.3 98.98     Mostly Cloudy
16:00 16.4 13.8 85   23 9 16.1 98.98     Rain
17:00 15.6 13.8 89   19 6 11.3 98.86      
18:00 14.8 13.2 90     0 11.3 98.76      
19:00 13.4 12.3 93   14 4 9.7 98.74      
20:00 12.2 12.0 99     0 3.7 98.72      
21:00 13.8 13.0 95     0 11.3 98.73      
22:00 14.8 12.8 88   22 6 12.9 98.74      
23:00 14.7 13.0 90   25 6 12.9 98.75      

Notes on Data Quality.

Legend

  • E = Estimated
  • M = Missing
  • NA = Not Available*
  • [empty] = Indicates an unobserved value
Date modified: